| time (UTC) | temp C | wind direction | speed KPH | gust KPH | rain 1hr cm | rain 24hr cm | rain mn cm | humidity % | barometer mb |
| 20260507213410 | 18 | 34 | 3.2 | 12.9 | 0.00 | 0.66 | 0.66 | 34 | 1004.3 |
| 20260507212907 | 18 | 288 | 8.0 | 11.3 | 0.00 | 0.66 | 0.66 | 35 | 1004.5 |
| 20260507212403 | 18 | 338 | 9.7 | 17.7 | 0.00 | 0.66 | 0.66 | 34 | 1004.4 |
| 20260507211859 | 18 | 198 | 3.2 | 9.7 | 0.00 | 0.66 | 0.66 | 33 | 1004.4 |
| 20260507211356 | 18 | 187 | 3.2 | 12.9 | 0.00 | 0.66 | 0.66 | 35 | 1004.3 |
| 20260507210853 | 18 | 273 | 6.4 | 24.1 | 0.00 | 0.66 | 0.66 | 34 | 1004.5 |
| 20260507210350 | 18 | 264 | 3.2 | 9.7 | 0.00 | 0.00 | 0.00 | 35 | 1004.2 |
| 20260507205847 | 18 | 337 | 9.7 | 19.3 | 0.00 | 0.00 | 0.00 | 35 | 1004.1 |
| 20260507205343 | 18 | 178 | 8.0 | 25.7 | 0.00 | 0.66 | 0.66 | 33 | 1004.3 |
| 20260507204840 | 18 | 332 | 22.5 | 24.1 | 0.00 | 0.66 | 0.66 | 35 | 1004.2 |
| 20260507204337 | 18 | 66 | 3.2 | 12.9 | 0.00 | 0.66 | 0.66 | 37 | 1004.1 |
| 20260507203835 | 18 | 291 | 14.5 | 19.3 | 0.00 | 0.66 | 0.66 | 36 | 1004.1 |
| 20260507203333 | 18 | 21 | 17.7 | 17.7 | 0.00 | 0.66 | 0.66 | 34 | 1004.1 |
| 20260507202828 | 18 | 332 | 6.4 | 20.9 | 0.00 | 0.66 | 0.66 | 33 | 1004.2 |
| 20260507202325 | 18 | 304 | 8.0 | 14.5 | 0.00 | 0.66 | 0.66 | 34 | 1004.3 |
| 20260507201820 | 19 | 329 | 9.7 | 9.7 | 0.00 | 0.66 | 0.66 | 38 | 1004.0 |
| 20260507201316 | 18 | 352 | 17.7 | 20.9 | 0.00 | 0.66 | 0.66 | 36 | 1004.1 |
| 20260507200813 | 19 | 159 | 3.2 | 22.5 | 0.00 | 0.66 | 0.66 | 38 | 1004.1 |
| 20260507200309 | 18 | 346 | 11.3 | 20.9 | 0.00 | 0.66 | 0.66 | 34 | 1004.1 |
| 20260507195805 | 19 | 343 | 11.3 | 12.9 | 0.00 | 0.66 | 0.66 | 36 | 1004.3 |
| 20260507195305 | 18 | 34 | 3.2 | 14.5 | 0.00 | 0.66 | 0.66 | 38 | 1004.3 |
| 20260507194800 | 18 | 30 | 4.8 | 30.6 | 0.00 | 0.66 | 0.66 | 38 | 1004.4 |
| 20260507194255 | 18 | 352 | 12.9 | 24.1 | 0.00 | 0.66 | 0.66 | 36 | 1004.4 |
| 20260507193752 | 18 | 19 | 8.0 | 11.3 | 0.00 | 0.00 | 0.00 | 35 | 1004.4 |
| 20260507193249 | 18 | 272 | 14.5 | 24.1 | 0.00 | 0.66 | 0.66 | 36 | 1004.5 |
| 20260507192745 | 18 | 338 | 3.2 | 16.1 | 0.00 | 0.66 | 0.66 | 38 | 1004.6 |
| 20260507192242 | 18 | 346 | 12.9 | 14.5 | 0.00 | 0.66 | 0.66 | 37 | 1004.4 |
| 20260507191738 | 18 | 239 | 11.3 | 11.3 | 0.00 | 0.66 | 0.66 | 38 | 1004.6 |
| 20260507191235 | 18 | 306 | 6.4 | 22.5 | 0.00 | 0.66 | 0.66 | 38 | 1004.6 |
| 20260507190732 | 18 | 312 | 17.7 | 20.9 | 0.00 | 0.66 | 0.66 | 39 | 1004.6 |
| 20260507190230 | 17 | 308 | 6.4 | 19.3 | 0.00 | 0.66 | 0.66 | 38 | 1004.6 |
| 20260507185729 | 18 | 250 | 12.9 | 20.9 | 0.00 | 0.66 | 0.66 | 38 | 1005.0 |
| 20260507185225 | 18 | 341 | 6.4 | 19.3 | 0.00 | 0.66 | 0.66 | 39 | 1004.8 |
| 20260507184723 | 18 | 285 | 0.0 | 11.3 | 0.00 | 0.66 | 0.66 | 43 | 1005.0 |
| 20260507184221 | 18 | 318 | 12.9 | 17.7 | 0.00 | 0.66 | 0.66 | 41 | 1005.1 |
| 20260507183717 | 18 | 313 | 8.0 | 20.9 | 0.00 | 0.66 | 0.66 | 40 | 1004.9 |
| 20260507183214 | 18 | 205 | 11.3 | 17.7 | 0.00 | 0.66 | 0.66 | 45 | 1005.2 |
| 20260507182711 | 18 | 288 | 8.0 | 17.7 | 0.00 | 0.66 | 0.66 | 40 | 1005.0 |
| 20260507182206 | 17 | 318 | 12.9 | 12.9 | 0.00 | 0.66 | 0.66 | 39 | 1005.2 |
| 20260507181703 | 17 | 275 | 9.7 | 22.5 | 0.00 | 0.66 | 0.66 | 40 | 1005.5 |
| 20260507181200 | 17 | 303 | 11.3 | 14.5 | 0.00 | 0.66 | 0.66 | 41 | 1005.2 |
| 20260507180656 | 17 | 246 | 12.9 | 22.5 | 0.00 | 0.66 | 0.66 | 41 | 1005.4 |
| 20260507180153 | 17 | 297 | 14.5 | 17.7 | 0.00 | 0.66 | 0.66 | 44 | 1005.4 |
| 20260507175649 | 17 | 287 | 9.7 | 12.9 | 0.00 | 0.66 | 0.66 | 47 | 1005.2 |
| 20260507175146 | 17 | 281 | 8.0 | 19.3 | 0.00 | 0.66 | 0.66 | 48 | 1005.4 |
| 20260507174643 | 18 | 176 | 6.4 | 11.3 | 0.00 | 0.66 | 0.66 | 51 | 1005.3 |
| 20260507174142 | 17 | 331 | 4.8 | 12.9 | 0.00 | 0.66 | 0.66 | 51 | 1005.4 |
| 20260507173638 | 17 | 232 | 6.4 | 12.9 | 0.00 | 0.66 | 0.66 | 48 | 1005.2 |
| 20260507173135 | 17 | 238 | 0.0 | 17.7 | 0.00 | 0.66 | 0.66 | 50 | 1005.4 |
| 20260507172631 | 17 | 127 | 6.4 | 14.5 | 0.00 | 0.66 | 0.66 | 52 | 1005.5 |
| 20260507172129 | 16 | 234 | 4.8 | 16.1 | 0.00 | 0.66 | 0.66 | 49 | 1005.6 |
| 20260507171624 | 17 | 326 | 4.8 | 27.4 | 0.00 | 0.66 | 0.66 | 51 | 1005.7 |
| 20260507171121 | 17 | 53 | 3.2 | 17.7 | 0.00 | 0.66 | 0.66 | 54 | 1005.5 |
| 20260507170618 | 17 | 38 | 3.2 | 20.9 | 0.00 | 0.66 | 0.66 | 54 | 1005.7 |
| 20260507170115 | 16 | 6 | 3.2 | 8.0 | 0.00 | 0.66 | 0.66 | 54 | 1005.7 |
| 20260507165611 | 16 | 297 | 3.2 | 19.3 | 0.00 | 0.66 | 0.66 | 54 | 1005.7 |
| 20260507165107 | 16 | 303 | 9.7 | 17.7 | 0.00 | 0.66 | 0.66 | 55 | 1005.7 |
| 20260507164603 | 17 | 268 | 8.0 | 19.3 | 0.00 | 0.66 | 0.66 | 55 | 1005.7 |
| 20260507164100 | 16 | 160 | 6.4 | 22.5 | 0.00 | 0.66 | 0.66 | 58 | 1005.8 |
| 20260507163558 | 16 | 230 | 11.3 | 20.9 | 0.00 | 0.66 | 0.66 | 60 | 1006.0 |
| 20260507163056 | 16 | 358 | 9.7 | 24.1 | 0.00 | 0.66 | 0.66 | 57 | 1006.0 |
| 20260507162555 | 15 | 152 | 9.7 | 11.3 | 0.00 | 0.66 | 0.66 | 62 | 1006.0 |
| 20260507162053 | 15 | 292 | 3.2 | 14.5 | 0.00 | 0.00 | 0.00 | 58 | 1006.2 |
| 20260507161549 | 15 | 224 | 4.8 | 12.9 | 0.00 | 0.00 | 0.00 | 59 | 1006.1 |
| 20260507161046 | 16 | 344 | 9.7 | 11.3 | 0.00 | 0.00 | 0.00 | 55 | 1006.2 |
| 20260507160542 | 16 | 278 | 9.7 | 11.3 | 0.00 | 0.00 | 0.00 | 56 | 1006.3 |
| 20260507160038 | 15 | 151 | 4.8 | 14.5 | 0.00 | 0.00 | 0.00 | 58 | 1006.4 |
| 20260507155534 | 15 | 288 | 8.0 | 17.7 | 0.00 | 0.66 | 0.66 | 59 | 1006.5 |
| 20260507155031 | 15 | 327 | 8.0 | 12.9 | 0.00 | 0.66 | 0.66 | 58 | 1006.6 |
| 20260507154528 | 15 | 260 | 8.0 | 9.7 | 0.00 | 0.66 | 0.66 | 57 | 1006.6 |
| 20260507154025 | 15 | 305 | 4.8 | 11.3 | 0.00 | 0.66 | 0.66 | 57 | 1006.6 |
| 20260507153521 | 15 | 323 | 0.0 | 9.7 | 0.00 | 0.66 | 0.66 | 63 | 1006.5 |
| 20260507153018 | 16 | 71 | 3.2 | 6.4 | 0.00 | 0.66 | 0.66 | 61 | 1006.7 |
| 20260507152513 | 15 | 303 | 4.8 | 11.3 | 0.00 | 0.66 | 0.66 | 60 | 1006.7 |
| 20260507152010 | 15 | 176 | 4.8 | 17.7 | 0.00 | 0.66 | 0.66 | 60 | 1006.6 |
| 20260507151507 | 15 | 20 | 8.0 | 12.9 | 0.00 | 0.66 | 0.66 | 62 | 1006.7 |
| 20260507151004 | 15 | 181 | 6.4 | 8.0 | 0.00 | 0.66 | 0.66 | 68 | 1006.9 |
| 20260507150500 | 15 | 357 | 4.8 | 12.9 | 0.00 | 0.66 | 0.66 | 62 | 1007.1 |
| 20260507145956 | 14 | 27 | 6.4 | 8.0 | 0.00 | 0.66 | 0.66 | 63 | 1007.0 |
| 20260507145452 | 14 | 47 | 6.4 | 14.5 | 0.00 | 0.66 | 0.66 | 62 | 1007.0 |
| 20260507144950 | 14 | 32 | 6.4 | 20.9 | 0.00 | 0.66 | 0.66 | 64 | 1007.0 |
| 20260507144446 | 14 | 313 | 8.0 | 8.0 | 0.00 | 0.66 | 0.66 | 66 | 1006.9 |
| 20260507143943 | 13 | 355 | 8.0 | 9.7 | 0.00 | 0.66 | 0.66 | 68 | 1007.1 |
| 20260507143441 | 13 | 311 | 3.2 | 14.5 | 0.00 | 0.66 | 0.66 | 65 | 1007.2 |
| 20260507142937 | 13 | 27 | 12.9 | 17.7 | 0.00 | 0.66 | 0.66 | 66 | 1007.0 |
| 20260507142433 | 13 | 24 | 3.2 | 12.9 | 0.00 | 0.66 | 0.66 | 69 | 1007.2 |
| 20260507141931 | 13 | 7 | 3.2 | 14.5 | 0.00 | 0.66 | 0.66 | 71 | 1007.1 |
| 20260507141426 | 13 | 280 | 3.2 | 9.7 | 0.00 | 0.66 | 0.66 | 70 | 1007.4 |
| 20260507140923 | 13 | 6 | 3.2 | 9.7 | 0.00 | 0.66 | 0.66 | 73 | 1007.4 |
| 20260507140420 | 13 | 300 | 11.3 | 16.1 | 0.00 | 0.66 | 0.66 | 72 | 1007.2 |
| 20260507135918 | 13 | 338 | 3.2 | 14.5 | 0.00 | 0.66 | 0.66 | 74 | 1007.3 |
| 20260507135414 | 13 | 336 | 8.0 | 17.7 | 0.00 | 0.66 | 0.66 | 74 | 1007.1 |
| 20260507134912 | 12 | 301 | 9.7 | 12.9 | 0.00 | 0.66 | 0.66 | 80 | 1007.3 |
| 20260507134408 | 12 | 292 | 8.0 | 11.3 | 0.00 | 0.66 | 0.66 | 81 | 1007.4 |
| 20260507133904 | 12 | 327 | 3.2 | 14.5 | 0.00 | 0.66 | 0.66 | 84 | 1007.2 |
| 20260507133400 | 12 | 20 | 8.0 | 9.7 | 0.00 | 0.66 | 0.66 | 86 | 1007.2 |
| 20260507132859 | 12 | 29 | 3.2 | 14.5 | 0.00 | 0.66 | 0.66 | 89 | 1007.2 |
| 20260507132355 | 11 | 215 | 4.8 | 17.7 | 0.00 | 0.66 | 0.66 | 91 | 1007.3 |
| 20260507131852 | 11 | 44 | 4.8 | 11.3 | 0.00 | 0.66 | 0.66 | 95 | 1007.3 |
| 20260507131349 | 11 | 310 | 9.7 | 9.7 | 0.00 | 0.66 | 0.66 | 97 | 1007.3 |
| 20260507130846 | 11 | 299 | 3.2 | 8.0 | 0.00 | 0.66 | 0.66 | 98 | 1007.3 |
| 20260507130342 | 10 | 63 | 6.4 | 9.7 | 0.00 | 0.66 | 0.66 | 99 | 1007.3 |
| 20260507125842 | 10 | 221 | 0.0 | 14.5 | 0.00 | 0.66 | 0.66 | 99 | 1007.2 |
| 20260507125338 | 10 | 31 | 6.4 | 8.0 | 0.00 | 0.66 | 0.66 | 99 | 1007.1 |
| 20260507124836 | 10 | 270 | 3.2 | 14.5 | 0.00 | 0.66 | 0.66 | 99 | 1007.3 |
| 20260507124332 | 10 | 284 | 4.8 | 9.7 | 0.00 | 0.66 | 0.66 | 99 | 1007.4 |
| 20260507123831 | 10 | 311 | 0.0 | 12.9 | 0.71 | 0.66 | 0.66 | 99 | 1007.7 |
| 20260507123327 | 10 | 305 | 0.0 | 8.0 | 0.71 | 0.66 | 0.66 | 99 | 1007.6 |
| 20260507122823 | 10 | 199 | 3.2 | 8.0 | 0.00 | 0.00 | 0.00 | 99 | 1007.8 |
| 20260507122319 | 10 | 327 | 0.0 | 3.2 | 0.00 | 0.00 | 0.00 | 99 | 1007.6 |
| 20260507121815 | 10 | 316 | 4.8 | 6.4 | 0.00 | 0.00 | 0.00 | 99 | 1007.4 |
| 20260507121311 | 9 | 30 | 0.0 | 4.8 | 0.00 | 0.00 | 0.00 | 99 | 1007.2 |
| 20260507120808 | 9 | 210 | 0.0 | 3.2 | 0.00 | 0.00 | 0.00 | 99 | 1007.1 |
| 20260507120304 | 9 | 98 | 0.0 | 3.2 | 0.00 | 0.00 | 0.00 | 99 | 1007.3 |
| 20260507115801 | 8 | 193 | 3.2 | 4.8 | 0.00 | 0.00 | 0.00 | 99 | 1007.4 |
| 20260507115256 | 8 | 195 | 0.0 | 3.2 | 0.00 | 0.00 | 0.00 | 99 | 1007.4 |
| 20260507114752 | 8 | 56 | 0.0 | 3.2 | 0.00 | 0.00 | 0.00 | 99 | 1007.4 |
| 20260507114250 | 8 | 158 | 3.2 | 6.4 | 0.00 | 0.56 | 0.56 | 99 | 1007.6 |
| 20260507113747 | 8 | 179 | 0.0 | 6.4 | 0.00 | 0.56 | 0.56 | 99 | 1007.2 |
| 20260507113243 | 8 | 357 | 0.0 | 4.8 | 0.00 | 0.56 | 0.56 | 99 | 1006.8 |
| 20260507112742 | 8 | 6 | 3.2 | 3.2 | 0.00 | 0.56 | 0.56 | 99 | 1006.9 |
| 20260507112238 | 8 | 185 | 0.0 | 3.2 | 0.00 | 0.56 | 0.56 | 99 | 1007.4 |
| 20260507111736 | 8 | 140 | 0.0 | 3.2 | 0.00 | 0.56 | 0.56 | 99 | 1007.4 |
| 20260507111232 | 8 | 142 | 0.0 | 4.8 | 0.00 | 0.56 | 0.56 | 99 | 1007.3 |
| 20260507110728 | 8 | 3 | 4.8 | 4.8 | 0.00 | 0.56 | 0.56 | 99 | 1007.1 |
| 20260507110225 | 8 | 24 | 0.0 | 12.9 | 0.00 | 0.56 | 0.56 | 99 | 1006.9 |
| 20260507105722 | 8 | 301 | 0.0 | 8.0 | 0.00 | 0.56 | 0.56 | 99 | 1006.9 |
| 20260507105218 | 9 | 56 | 6.4 | 6.4 | 0.00 | 0.56 | 0.56 | 99 | 1006.6 |
| 20260507104716 | 9 | 338 | 3.2 | 6.4 | 0.00 | 0.56 | 0.56 | 99 | 1006.9 |
| 20260507104212 | 9 | 316 | 3.2 | 8.0 | 0.00 | 0.56 | 0.56 | 99 | 1007.1 |
| 20260507103708 | 9 | 342 | 3.2 | 8.0 | 0.00 | 0.56 | 0.56 | 99 | 1007.2 |
| 20260507103204 | 9 | 349 | 0.0 | 6.4 | 0.00 | 0.56 | 0.56 | 99 | 1007.0 |
| 20260507102701 | 9 | 350 | 3.2 | 9.7 | 0.00 | 0.56 | 0.56 | 99 | 1007.2 |
| 20260507102158 | 9 | 345 | 0.0 | 6.4 | 0.13 | 0.56 | 0.56 | 99 | 1007.5 |
| 20260507101653 | 9 | 258 | 3.2 | 6.4 | 0.13 | 0.53 | 0.53 | 99 | 1007.0 |
| 20260507101149 | 9 | 11 | 0.0 | 3.2 | 0.18 | 0.53 | 0.53 | 99 | 1007.0 |
| 20260507100647 | 10 | 323 | 6.4 | 8.0 | 0.18 | 0.51 | 0.51 | 99 | 1006.8 |
| 20260507100145 | 10 | 17 | 3.2 | 3.2 | 0.05 | 0.51 | 0.51 | 99 | 1006.8 |
| 20260507095643 | 10 | 109 | 0.0 | 3.2 | 0.00 | 0.48 | 0.48 | 99 | 1007.1 |
| 20260507095139 | 10 | 318 | 0.0 | 3.2 | 0.05 | 0.48 | 0.48 | 99 | 1006.5 |
| 20260507094635 | 10 | 334 | 3.2 | 8.0 | 0.00 | 0.48 | 0.48 | 99 | 1006.5 |
| 20260507094132 | 10 | 315 | 6.4 | 12.9 | 0.05 | 0.48 | 0.48 | 99 | 1006.8 |
| 20260507093629 | 10 | 322 | 0.0 | 12.9 | 0.05 | 0.48 | 0.48 | 99 | 1006.8 |
| 20260507093128 | 10 | 47 | 3.2 | 8.0 | 0.00 | 0.46 | 0.46 | 99 | 1006.6 |
| 20260507092624 | 10 | 276 | 3.2 | 4.8 | 0.00 | 0.46 | 0.46 | 99 | 1006.7 |
| 20260507092121 | 10 | 325 | 8.0 | 8.0 | 0.00 | 0.46 | 0.46 | 99 | 1006.8 |
| 20260507091618 | 10 | 52 | 3.2 | 8.0 | 0.05 | 0.46 | 0.46 | 99 | 1006.4 |
| 20260507091114 | 10 | 45 | 6.4 | 11.3 | 0.05 | 0.46 | 0.46 | 99 | 1006.3 |
| 20260507090610 | 11 | 330 | 8.0 | 11.3 | 0.05 | 0.46 | 0.46 | 99 | 1006.2 |
| 20260507090107 | 11 | 339 | 6.4 | 11.3 | 0.13 | 0.46 | 0.46 | 99 | 1006.2 |
| 20260507085604 | 11 | 327 | 4.8 | 12.9 | 0.13 | 0.46 | 0.46 | 99 | 1006.2 |
| 20260507085100 | 11 | 341 | 3.2 | 6.4 | 0.18 | 0.43 | 0.43 | 99 | 1006.2 |
| 20260507084557 | 11 | 354 | 6.4 | 9.7 | 0.13 | 0.43 | 0.43 | 99 | 1006.1 |
| 20260507084054 | 11 | 284 | 8.0 | 11.3 | 0.05 | 0.41 | 0.41 | 99 | 1006.2 |
| 20260507083550 | 11 | 21 | 0.0 | 4.8 | 0.30 | 0.41 | 0.41 | 99 | 1005.6 |
| 20260507083048 | 11 | 97 | 0.0 | 9.7 | 0.66 | 0.41 | 0.41 | 99 | 1006.0 |
| 20260507082544 | 11 | 25 | 3.2 | 9.7 | 0.79 | 0.36 | 0.36 | 99 | 1006.1 |
| 20260507082041 | 12 | 44 | 0.0 | 3.2 | 0.53 | 0.28 | 0.28 | 99 | 1006.2 |
| 20260507081536 | 12 | 6 | 8.0 | 8.0 | 0.23 | 0.20 | 0.20 | 99 | 1006.0 |
| 20260507081034 | 12 | 359 | 3.2 | 6.4 | 0.30 | 0.18 | 0.18 | 99 | 1006.2 |
| 20260507080529 | 12 | 270 | 3.2 | 8.0 | 0.30 | 0.15 | 0.15 | 99 | 1006.2 |
| 20260507080026 | 12 | 12 | 0.0 | 9.7 | 0.30 | 0.15 | 0.15 | 98 | 1005.8 |
| 20260507075521 | 12 | 41 | 4.8 | 11.3 | 0.53 | 0.10 | 0.10 | 97 | 1006.0 |
| 20260507075018 | 13 | 254 | 8.0 | 8.0 | 0.48 | 0.08 | 0.08 | 97 | 1006.1 |
| 20260507074514 | 13 | 346 | 3.2 | 11.3 | 0.05 | 0.00 | 0.00 | 97 | 1005.7 |
| 20260507074013 | 13 | 297 | 9.7 | 9.7 | 0.00 | 0.00 | 0.00 | 97 | 1005.4 |
| 20260507073509 | 13 | 273 | 4.8 | 8.0 | 0.00 | 0.00 | 0.00 | 98 | 1005.1 |
| 20260507073006 | 13 | 29 | 3.2 | 3.2 | 0.00 | 0.00 | 0.00 | 98 | 1005.2 |
| 20260507072503 | 13 | 22 | 3.2 | 3.2 | 0.00 | 0.00 | 0.00 | 99 | 1005.2 |
| 20260507072000 | 13 | 20 | 3.2 | 6.4 | 0.00 | 0.00 | 0.00 | 99 | 1005.0 |
| 20260507071457 | 13 | 10 | 3.2 | 6.4 | 0.00 | 0.00 | 0.00 | 99 | 1005.0 |
| 20260507070954 | 13 | 317 | 3.2 | 9.7 | 0.00 | 0.00 | 0.00 | 99 | 1005.4 |
| 20260507070451 | 13 | 286 | 6.4 | 9.7 | 0.00 | 0.00 | 0.00 | 99 | 1005.3 |
| 20260507065948 | 13 | 202 | 0.0 | 4.8 | 0.00 | 0.00 | 0.00 | 99 | 1005.2 |
| 20260507065444 | 13 | 74 | 0.0 | 3.2 | 0.00 | 0.00 | 0.00 | 99 | 1005.0 |
| 20260507064942 | 13 | 181 | 0.0 | 3.2 | 0.00 | 0.00 | 0.00 | 99 | 1005.1 |
| 20260507064440 | 13 | 352 | 6.4 | 6.4 | 0.00 | 0.00 | 0.00 | 99 | 1005.0 |
| 20260507063937 | 13 | 40 | 3.2 | 8.0 | 0.00 | 0.00 | 0.00 | 99 | 1005.1 |
| 20260507063434 | 13 | 262 | 3.2 | 3.2 | 0.00 | 0.00 | 0.00 | 99 | 1005.3 |
| 20260507062931 | 13 | 174 | 3.2 | 3.2 | 0.00 | 0.00 | 0.00 | 99 | 1005.2 |
| 20260507062429 | 13 | 91 | 0.0 | 3.2 | 0.00 | 0.00 | 0.00 | 99 | 1005.2 |
| 20260507061925 | 13 | 49 | 3.2 | 4.8 | 0.00 | 0.00 | 0.00 | 99 | 1005.3 |
| 20260507061424 | 13 | 257 | 0.0 | 6.4 | 0.00 | 0.00 | 0.00 | 99 | 1005.4 |
| 20260507060922 | 13 | 4 | 3.2 | 3.2 | 0.00 | 0.00 | 0.00 | 99 | 1005.4 |
| 20260507060418 | 13 | 194 | 4.8 | 8.0 | 0.00 | 0.00 | 0.00 | 99 | 1005.5 |
| 20260507055915 | 13 | 228 | 8.0 | 8.0 | 0.00 | 0.00 | 0.00 | 99 | 1005.8 |
| 20260507055410 | 13 | 187 | 3.2 | 8.0 | 0.00 | 0.00 | 0.00 | 99 | 1005.4 |
| 20260507054907 | 13 | 103 | 3.2 | 9.7 | 0.00 | 0.00 | 0.00 | 99 | 1005.3 |
| 20260507054403 | 13 | 289 | 0.0 | 8.0 | 0.00 | 0.00 | 0.00 | 99 | 1005.5 |
| 20260507053901 | 13 | 62 | 3.2 | 6.4 | 0.00 | 0.00 | 0.00 | 99 | 1005.9 |
| 20260507053358 | 13 | 176 | 4.8 | 6.4 | 0.00 | 0.00 | 0.00 | 99 | 1005.7 |
| 20260507052857 | 13 | 191 | 0.0 | 4.8 | 0.00 | 0.00 | 0.00 | 99 | 1005.6 |
| 20260507052354 | 13 | 102 | 0.0 | 4.8 | 0.00 | 0.00 | 0.00 | 99 | 1005.6 |
| 20260507051851 | 13 | 155 | 3.2 | 8.0 | 0.00 | 0.00 | 0.00 | 99 | 1005.5 |
| 20260507051349 | 13 | 77 | 0.0 | 8.0 | 0.00 | 0.00 | 0.00 | 99 | 1005.6 |
| 20260507050845 | 13 | 162 | 3.2 | 6.4 | 0.00 | 0.00 | 0.00 | 99 | 1005.6 |
| 20260507050342 | 13 | 314 | 3.2 | 9.7 | 0.00 | 0.00 | 0.00 | 99 | 1005.8 |
| 20260507045838 | 13 | 197 | 0.0 | 6.4 | 0.00 | 0.00 | 0.00 | 99 | 1005.9 |
| 20260507045335 | 13 | 232 | 0.0 | 6.4 | 0.00 | 0.00 | 0.00 | 99 | 1006.0 |
| 20260507044832 | 13 | 152 | 4.8 | 12.9 | 0.00 | 0.00 | 0.00 | 99 | 1005.9 |
| 20260507044329 | 13 | 238 | 3.2 | 9.7 | 0.00 | 0.00 | 0.00 | 99 | 1005.8 |
| 20260507043825 | 13 | 107 | 4.8 | 9.7 | 0.00 | 0.00 | 0.00 | 99 | 1005.7 |
| 20260507043321 | 13 | 6 | 0.0 | 12.9 | 0.00 | 0.00 | 0.00 | 99 | 1005.7 |
| 20260507042818 | 13 | 213 | 3.2 | 12.9 | 0.00 | 0.00 | 0.00 | 99 | 1005.7 |
| 20260507042314 | 13 | 197 | 0.0 | 9.7 | 0.00 | 0.00 | 0.00 | 99 | 1005.8 |
| 20260507041811 | 13 | 254 | 6.4 | 8.0 | 0.00 | 0.00 | 0.00 | 99 | 1005.9 |
| 20260507041307 | 13 | 162 | 3.2 | 11.3 | 0.00 | 0.00 | 0.00 | 99 | 1005.8 |
| 20260507040805 | 13 | 217 | 3.2 | 9.7 | 0.00 | 0.00 | 0.00 | 99 | 1005.9 |
| 20260507040300 | 13 | 170 | 6.4 | 14.5 | 0.00 | 0.00 | 0.00 | 99 | 1006.1 |
| 20260507035756 | 13 | 277 | 0.0 | 8.0 | 0.00 | 0.18 | 0.18 | 99 | 1006.0 |
| 20260507035252 | 13 | 123 | 0.0 | 11.3 | 0.00 | 0.18 | 0.18 | 99 | 1006.0 |
| 20260507034750 | 13 | 106 | 8.0 | 11.3 | 0.00 | 0.18 | 0.18 | 99 | 1006.2 |
| 20260507034246 | 13 | 273 | 8.0 | 17.7 | 0.00 | 0.18 | 0.18 | 99 | 1006.4 |
| 20260507033745 | 13 | 177 | 6.4 | 12.9 | 0.00 | 0.18 | 0.18 | 99 | 1006.2 |
| 20260507033242 | 13 | 245 | 11.3 | 12.9 | 0.00 | 0.18 | 0.18 | 99 | 1006.0 |
| 20260507032739 | 13 | 223 | 9.7 | 14.5 | 0.00 | 0.18 | 0.18 | 99 | 1006.0 |
| 20260507032235 | 13 | 239 | 11.3 | 12.9 | 0.00 | 0.18 | 0.18 | 99 | 1006.0 |
| 20260507031732 | 13 | 171 | 9.7 | 14.5 | 0.00 | 0.18 | 0.18 | 99 | 1005.9 |
| 20260507031229 | 13 | 200 | 9.7 | 35.4 | 0.00 | 0.18 | 0.18 | 99 | 1005.7 |
| 20260507030725 | 13 | 273 | 6.4 | 14.5 | 0.00 | 0.18 | 0.18 | 99 | 1005.7 |
| 20260507030223 | 13 | 321 | 3.2 | 22.5 | 0.00 | 0.18 | 0.18 | 99 | 1005.7 |
| 20260507025720 | 13 | 183 | 6.4 | 14.5 | 0.00 | 0.18 | 0.18 | 99 | 1005.7 |
| 20260507025217 | 13 | 214 | 6.4 | 9.7 | 0.00 | 0.18 | 0.18 | 99 | 1005.5 |
| 20260507024715 | 13 | 128 | 3.2 | 12.9 | 0.00 | 0.18 | 0.18 | 99 | 1005.5 |
| 20260507024212 | 13 | 286 | 3.2 | 11.3 | 0.00 | 0.18 | 0.18 | 99 | 1005.5 |
| 20260507023707 | 13 | 185 | 6.4 | 19.3 | 0.00 | 0.18 | 0.18 | 99 | 1005.6 |
| 20260507023205 | 13 | 125 | 11.3 | 22.5 | 0.00 | 0.18 | 0.18 | 99 | 1005.6 |
| 20260507022702 | 13 | 218 | 12.9 | 12.9 | 0.00 | 0.18 | 0.18 | 99 | 1005.6 |
| 20260507022157 | 13 | 191 | 16.1 | 20.9 | 0.00 | 0.18 | 0.18 | 99 | 1005.5 |
| 20260507021654 | 13 | 47 | 0.0 | 17.7 | 0.00 | 0.18 | 0.18 | 99 | 1005.4 |
| 20260507021149 | 13 | 234 | 8.0 | 19.3 | 0.00 | 0.18 | 0.18 | 99 | 1005.8 |
| 20260507020648 | 13 | 222 | 11.3 | 11.3 | 0.00 | 0.18 | 0.18 | 99 | 1005.9 |
| 20260507020144 | 13 | 134 | 3.2 | 14.5 | 0.00 | 0.18 | 0.18 | 99 | 1005.9 |
| 20260507015642 | 13 | 127 | 6.4 | 12.9 | 0.00 | 0.18 | 0.18 | 99 | 1006.1 |
| 20260507015139 | 13 | 196 | 4.8 | 11.3 | 0.00 | 0.18 | 0.18 | 99 | 1006.1 |
| 20260507014636 | 13 | 138 | 14.5 | 25.7 | 0.00 | 0.18 | 0.18 | 99 | 1006.1 |
| 20260507014132 | 13 | 153 | 8.0 | 24.1 | 0.00 | 0.18 | 0.18 | 99 | 1006.2 |
| 20260507013629 | 13 | 121 | 8.0 | 24.1 | 0.00 | 0.18 | 0.18 | 99 | 1006.2 |
| 20260507013126 | 13 | 168 | 9.7 | 20.9 | 0.00 | 0.18 | 0.18 | 99 | 1006.1 |
| 20260507012623 | 13 | 280 | 0.0 | 20.9 | 0.00 | 0.18 | 0.18 | 99 | 1006.2 |
| 20260507012118 | 13 | 147 | 9.7 | 24.1 | 0.00 | 0.18 | 0.18 | 99 | 1006.2 |
| 20260507011617 | 13 | 164 | 8.0 | 19.3 | 0.00 | 0.18 | 0.18 | 99 | 1006.3 |
| 20260507011113 | 13 | 125 | 6.4 | 24.1 | 0.00 | 0.18 | 0.18 | 99 | 1006.3 |
| 20260507010608 | 13 | 275 | 6.4 | 19.3 | 0.00 | 0.18 | 0.18 | 99 | 1006.3 |
| 20260507010104 | 13 | 168 | 3.2 | 17.7 | 0.00 | 0.18 | 0.18 | 99 | 1006.2 |
| 20260507005601 | 13 | 230 | 12.9 | 14.5 | 0.00 | 0.18 | 0.18 | 99 | 1006.4 |
| 20260507005057 | 13 | 114 | 19.3 | 24.1 | 0.00 | 0.18 | 0.18 | 99 | 1006.4 |
| 20260507004554 | 13 | 154 | 11.3 | 16.1 | 0.00 | 0.18 | 0.18 | 99 | 1006.2 |
| 20260507004052 | 13 | 124 | 11.3 | 14.5 | 0.00 | 0.18 | 0.18 | 99 | 1006.4 |
| 20260507003548 | 13 | 106 | 14.5 | 16.1 | 0.00 | 0.18 | 0.18 | 99 | 1006.4 |
| 20260507003043 | 13 | 151 | 11.3 | 11.3 | 0.00 | 0.18 | 0.18 | 99 | 1006.3 |
| 20260507002540 | 13 | 141 | 8.0 | 12.9 | 0.05 | 0.18 | 0.18 | 99 | 1006.4 |
| 20260507002036 | 13 | 199 | 22.5 | 22.5 | 0.13 | 0.18 | 0.18 | 99 | 1006.2 |
| 20260507001532 | 13 | 249 | 8.0 | 17.7 | 0.13 | 0.15 | 0.15 | 99 | 1006.2 |
| 20260507001030 | 13 | 157 | 9.7 | 17.7 | 0.18 | 0.15 | 0.15 | 99 | 1006.3 |
| 20260507000526 | 13 | 211 | 11.3 | 14.5 | 0.13 | 0.15 | 0.15 | 99 | 1006.1 |
| 20260507000022 | 13 | 231 | 14.5 | 24.1 | 0.00 | 0.13 | 0.13 | 99 | 1006.3 |
| 20260506235519 | 13 | 229 | 6.4 | 32.2 | 0.00 | 0.13 | 0.13 | 99 | 1006.2 |
| 20260506235015 | 13 | 202 | 12.9 | 14.5 | 0.00 | 0.13 | 0.13 | 99 | 1006.1 |
| 20260506234513 | 13 | 121 | 9.7 | 14.5 | 0.00 | 0.13 | 0.13 | 99 | 1006.3 |
| 20260506234010 | 13 | 135 | 6.4 | 12.9 | 0.00 | 0.13 | 0.13 | 99 | 1006.2 |
| 20260506233506 | 13 | 150 | 19.3 | 30.6 | 0.00 | 0.13 | 0.13 | 99 | 1006.3 |
| 20260506233003 | 13 | 128 | 11.3 | 14.5 | 0.00 | 0.13 | 0.13 | 99 | 1006.3 |
| 20260506232459 | 13 | 165 | 9.7 | 25.7 | 0.05 | 0.13 | 0.13 | 99 | 1006.4 |
| 20260506231955 | 13 | 81 | 14.5 | 29.0 | 0.05 | 0.13 | 0.13 | 99 | 1006.3 |
| 20260506231452 | 13 | 163 | 14.5 | 30.6 | 0.00 | 0.13 | 0.13 | 99 | 1006.4 |
| 20260506230950 | 13 | 140 | 6.4 | 19.3 | 0.00 | 0.13 | 0.13 | 99 | 1006.4 |
| 20260506230446 | 13 | 139 | 8.0 | 24.1 | 0.00 | 0.13 | 0.13 | 99 | 1006.3 |
| 20260506225942 | 13 | 197 | 3.2 | 8.0 | 0.05 | 0.13 | 0.13 | 99 | 1006.3 |
| 20260506225440 | 13 | 233 | 6.4 | 17.7 | 0.05 | 0.13 | 0.13 | 99 | 1006.3 |
| 20260506224937 | 13 | 114 | 6.4 | 22.5 | 0.05 | 0.10 | 0.10 | 99 | 1006.4 |
| 20260506224434 | 13 | 233 | 8.0 | 14.5 | 0.13 | 0.10 | 0.10 | 99 | 1006.2 |
| 20260506223930 | 13 | 94 | 12.9 | 17.7 | 0.13 | 0.10 | 0.10 | 99 | 1006.5 |
| 20260506223426 | 14 | 146 | 12.9 | 22.5 | 0.05 | 0.08 | 0.08 | 98 | 1006.9 |
| 20260506222923 | 14 | 177 | 3.2 | 19.3 | 0.05 | 0.08 | 0.08 | 98 | 1006.5 |
| 20260506222420 | 14 | 184 | 24.1 | 27.4 | 0.13 | 0.08 | 0.08 | 97 | 1006.8 |
| 20260506221917 | 14 | 213 | 16.1 | 24.1 | 0.05 | 0.05 | 0.05 | 97 | 1006.6 |
| 20260506221414 | 14 | 111 | 9.7 | 14.5 | 0.00 | 0.05 | 0.05 | 96 | 1006.8 |
| 20260506220912 | 15 | 164 | 14.5 | 29.0 | 0.00 | 0.05 | 0.05 | 96 | 1006.8 |
| 20260506220407 | 15 | 132 | 6.4 | 24.1 | 0.00 | 0.05 | 0.05 | 95 | 1006.8 |
| 20260506215904 | 15 | 171 | 24.1 | 27.4 | 0.00 | 0.05 | 0.05 | 96 | 1006.7 |
| 20260506215400 | 15 | 137 | 12.9 | 32.2 | 0.00 | 0.05 | 0.05 | 96 | 1007.0 |
| 20260506214856 | 15 | 171 | 6.4 | 24.1 | 0.00 | 0.05 | 0.05 | 96 | 1006.9 |
| 20260506214352 | 15 | 257 | 11.3 | 25.7 | 0.00 | 0.05 | 0.05 | 95 | 1006.7 |
| 20260506213851 | 15 | 202 | 22.5 | 27.4 | 0.00 | 0.05 | 0.05 | 95 | 1006.8 |